Location: Overspoor
(51.4747°N, 5.6641°E)
Time: 07:25:30
(UTC+02:00)

N. Korean satellite - Pass Details

Date: 19 January 2022
Orbit: 438 x 477 km, 97.3° (Epoch: 23 May)

Event Time Altitude Azimuth Distance (km) Brightness Sun altitude
Rises 04:01:50 0° 47° (NE) 2,621 11.0 -41.2°
Enters shadow 04:05:48 - 90° (E) 2,308 10.7 -40.7°
Exits shadow 04:10:58 -6° 132° (SE) 3,408 11.2 -39.9°
Reaches altitude 10° 05:35:36 10° 26° (NNE) 1,732 9.6 -27.0°
Maximum altitude 05:39:10 42° 98° (E) 745 7.9 -26.4°
